ECMWFFLT1_sfc_dewp_216.txt.gz
Dewpoint
7 7 8 9 11 12 14 17 20 23 24 25 25 26 28 29 29 29 29 29 29 29 28 28 27 27 26 26 25 23 24 21 20 20 21 23 21 21 22 21 21 19 18 16 17 12 4 9 13 14 15 17 18 18 22 26 21 22 22 22 22 22 28
4 5 5 5 6 8 9 12 13 18 21 22 23 24 24 25 25 27 29 29 28 29 29 28 28 28 28 28 28 27 27 27 26 25 24 23 24 22 23 21 22 20 19 18 17 16 8 8 11 10 13 14 15 16 20 23 21 21 21 21 21 21 22
2 2 2 2 3 5 6 8 9 11 16 18 20 21 22 23 24 24 24 25 28 29 29 29 28 28 28 29 28 28 28 28 28 28 27 26 26 25 24 23 23 22 21 20 19 19 14 6 9 9 9 13 13 16 17 20 21 20 22 22 20 21 22
1 1 1 1 1 1 4 7 8 10 14 16 18 19 20 20 22 23 23 24 24 25 26 28 29 29 29 29 29 28 28 29 29 29 28 28 27 27 26 25 24 24 24 23 21 21 20 8 6 7 6 11 13 14 17 19 20 20 21 22 22 22 22
1 1 1 0 0 -0 2 4 8 10 12 14 15 17 17 19 20 21 22 22 23 24 24 25 25 27 28 29 28 28 28 28 28 29 29 28 28 28 28 27 27 26 26 23 22 22 21 21 15 10 6 11 11 12 15 17 19 22 22 22 22 21 22
2 2 -1 -0 -1 -0 1 3 7 9 9 11 13 14 15 17 17 19 20 21 21 22 22 22 23 24 25 25 26 27 28 28 28 28 28 28 28 27 27 27 27 27 26 26 25 24 23 23 22 22 12 10 12 11 11 17 19 20 22 23 23 23 23
0 2 -0 -1 -1 -1 0 2 5 9 8 9 11 13 15 16 16 17 18 18 19 21 21 20 20 20 21 21 22 22 23 24 25 27 27 27 27 27 27 26 26 26 26 25 25 25 25 24 24 24 23 20 12 11 11 12 16 17 20 21 22 22 23
-0 2 0 -1 -1 -2 1 2 4 6 6 8 11 13 14 14 16 17 17 17 18 19 20 19 19 18 18 18 19 20 20 21 21 23 23 26 27 27 26 26 26 26 25 25 24 24 24 24 24 24 25 25 17 13 14 16 16 15 16 18 20 21 21
-2 2 1 -1 -1 -1 -1 2 3 5 6 9 11 13 14 15 16 16 17 17 18 19 19 19 18 16 15 17 19 19 19 20 21 20 21 22 23 24 25 25 25 25 25 24 24 24 24 24 24 24 24 23 23 17 16 17 17 16 18 19 19 20 21
-2 2 2 -0 -1 -1 -0 1 2 4 7 10 12 12 13 15 16 16 16 17 17 17 18 19 19 19 20 20 19 19 18 18 18 19 19 20 21 21 21 22 23 23 23 23 22 22 22 22 22 22 23 23 23 21 16 15 17 16 16 18 19 19 19
-1 -0 1 -0 -1 -1 -1 0 1 3 11 13 14 12 12 14 14 14 14 15 16 17 18 19 20 20 20 19 19 17 17 17 17 18 19 20 20 21 21 20 20 21 22 21 21 21 21 21 20 20 22 22 22 21 18 16 18 17 17 17 15 15 16
-2 -2 -1 -1 -2 -2 -1 -1 0 7 11 13 15 13 12 12 12 12 11 12 13 14 15 16 17 18 18 16 16 15 15 16 17 17 16 17 17 18 19 20 21 21 20 20 20 20 19 19 19 19 21 21 21 21 19 18 18 18 17 16 15 15 15
-3 -3 -3 -4 -4 -4 -2 -3 -1 6 10 13 14 14 12 11 10 9 9 10 11 12 12 13 14 16 17 16 17 18 16 15 14 16 16 15 15 16 16 17 18 19 20 21 21 20 19 19 19 19 20 20 20 21 20 19 17 17 17 16 15 15 16
-5 -4 -5 -6 -6 -6 -6 -5 -1 5 10 12 12 13 12 10 8 7 7 7 8 9 9 10 13 14 13 14 14 14 14 13 12 12 12 12 13 13 15 15 16 17 18 19 19 20 19 20 20 19 19 21 22 21 20 20 18 18 17 17 16 16 16
-6 -5 -4 -6 -7 -8 -7 -6 -2 7 9 11 12 12 11 7 6 5 5 6 6 6 6 8 10 10 10 9 10 14 15 15 15 14 14 13 12 13 13 14 15 15 15 16 16 17 18 19 20 21 21 21 21 21 21 21 20 20 19 19 17 16 13
-6 -6 -6 -7 -7 -7 -7 -7 -1 6 8 10 10 11 6 5 5 4 4 4 4 5 7 10 11 9 7 5 8 10 11 12 14 14 13 13 11 10 11 12 16 17 19 19 18 17 16 16 17 19 20 21 21 21 21 21 21 21 20 19 17 16 16
-6 -5 -6 -6 -8 -8 -8 -8 -4 2 7 9 10 8 5 4 3 2 3 3 5 7 8 8 9 10 8 7 5 8 8 10 10 10 11 13 13 12 10 11 13 16 17 17 17 18 19 20 22 23 23 23 22 21 21 20 19 17 18 17 16 16 16
-6 -6 -6 -8 -9 -8 -7 -8 -5 -3 4 8 9 6 4 3 2 1 1 3 5 6 5 5 5 5 6 5 2 8 8 11 9 6 8 10 10 10 10 11 12 10 12 13 13 13 14 15 16 17 18 20 22 23 23 21 19 19 18 17 16 15 15
-7 -7 -9 -10 -8 -6 -7 -8 -6 -4 -1 6 8 6 3 3 1 1 0 1 1 -0 -0 0 3 4 4 4 5 6 10 9 9 9 8 8 8 7 7 9 11 9 8 7 9 11 12 13 15 15 15 17 19 19 20 20 20 21 21 18 17 16 16
-7 -9 -9 -9 -9 -9 -8 -8 -9 -6 -3 5 7 8 2 1 1 0 -0 -2 -2 -2 -3 -1 -1 2 2 3 4 6 9 10 10 7 6 5 5 4 4 7 9 9 9 8 8 7 8 9 10 12 13 13 14 14 17 20 20 19 19 20 20 18 16
-10 -10 -10 -9 -9 -9 -9 -8 -8 -7 -3 2 4 6 2 1 0 -1 -2 -3 -3 -3 -3 -2 -0 -1 2 3 4 5 5 8 9 7 6 5 4 5 7 8 7 8 9 8 7 7 8 9 11 13 13 13 14 15 14 15 18 20 19 19 18 19 18
-10 -11 -11 -10 -9 -10 -9 -7 -5 -8 -5 -4 0 4 1 -1 -1 -1 -2 -2 -2 -1 -1 -2 -2 -2 -0 1 2 3 6 8 8 6 6 5 7 7 6 6 6 7 7 8 10 10 11 11 10 8 7 8 8 9 12 14 15 17 18 17 17 17 17
-12 -12 -12 -11 -11 -10 -10 -9 -10 -7 -7 -6 -4 1 -1 -2 -2 -0 -1 -2 -4 -4 -4 -3 -3 -1 -1 0 2 4 7 8 5 4 3 4 6 5 4 4 3 4 3 4 6 7 7 8 7 6 5 6 6 7 9 11 14 16 18 19 19 19 18
-13 -14 -15 -15 -13 -14 -12 -12 -11 -6 -8 -7 -7 -6 2 -1 -2 -2 -3 -2 -4 -4 -4 -4 -4 -2 -1 1 2 3 4 3 2 1 2 2 2 2 2 1 2 3 3 4 3 4 4 5 5 5 4 5 7 7 7 10 13 14 16 17 17 18 16
-14 -15 -15 -15 -15 -14 -14 -12 -12 -14 -9 -8 -8 -6 -5 -4 -4 -4 -5 -6 -6 -4 -5 -4 -3 -2 -2 -1 -0 0 0 -0 -0 -1 -0 0 1 1 -1 -1 -1 -1 -1 -0 1 2 3 3 4 4 5 7 8 10 11 11 10 11 12 12 10 9 7
-13 -14 -15 -16 -15 -16 -14 -14 -15 -12 -13 -7 -7 -7 -6 -5 -7 -8 -8 -8 -8 -7 -6 -5 -4 -4 -3 -3 -3 -2 -3 -2 -2 -0 -0 0 0 -2 -2 -2 -2 -2 -2 -3 -2 -1 1 3 3 3 5 6 7 7 6 7 8 9 8 9 10 11 10
-16 -16 -16 -16 -16 -16 -15 -15 -15 -14 -14 -12 -11 -12 -9 -10 -10 -8 -9 -8 -9 -7 -8 -7 -7 -7 -6 -6 -5 -5 -4 -4 -3 -3 -3 -3 -2 -2 -2 -1 -2 -2 -3 -2 -3 -1 0 2 5 5 6 5 5 5 5 6 5 5 6 9 6 8 9
-17 -17 -18 -19 -17 -17 -17 -16 -16 -16 -16 -14 -14 -12 -11 -14 -13 -15 -15 -12 -11 -11 -9 -9 -7 -8 -8 -8 -7 -7 -7 -6 -5 -3 -2 -5 -5 -3 -1 2 2 2 2 2 3 5 5 4 2 0 -1 -0 -1 -1 0 2 2 3 3 5 7 8 7
-16 -14 -17 -16 -16 -17 -17 -16 -17 -18 -8 -9 -11 -10 -12 -14 -15 -14 -13 -9 -9 -10 -10 -10 -10 -10 -10 -10 -9 -8 -7 -7 -10 -10 -8 -10 -10 -9 -6 -3 -4 -3 -3 -3 -2 -2 -0 1 2 2 4 2 1 1 2 4 4 5 6 9 9 7 6
-14 -13 -14 -14 -14 -14 -15 -16 -15 -11 -11 -11 -10 -10 -10 -10 -10 -10 -11 -10 -10 -10 -12 -12 -12 -12 -12 -12 -11 -10 -9 -11 -13 -13 -13 -13 -5 -7 -8 -6 -4 -3 -1 1 2 2 2 2 2 1 0 -1 2 1 1 5 7 5 5 5 6 6 6
-13 -13 -12 -13 -14 -12 -10 -11 -11 -11 -11 -11 -11 -11 -11 -11 -11 -11 -11 -10 -11 -12 -13 -13 -13 -13 -13 -13 -13 -12 -12 -12 -13 -12 -13 -14 -13 -12 -10 -6 -6 -5 -3 -2 -2 -2 -1 -1 -1 -0 1 1 2 2 1 3 4 4 3 3 3 3 3
-14 -14 -14 -13 -13 -14 -14 -12 -11 -12 -11 -11 -11 -12 -11 -11 -11 -11 -11 -12 -11 -14 -14 -14 -15 -15 -15 -14 -13 -12 -11 -12 -15 -14 -15 -15 -14 -13 -11 -10 -9 -6 -7 -6 -6 -5 -4 -4 -3 -2 -1 0 1 -1 -2 -3 -3 -4 -4 -3 -1 2 3
-16 -15 -14 -14 -13 -12 -12 -13 -12 -12 -12 -12 -12 -12 -13 -13 -12 -13 -13 -13 -14 -15 -16 -17 -16 -16 -15 -14 -13 -13 -14 -14 -16 -16 -16 -15 -14 -14 -13 -11 -9 -7 -9 -7 -7 -6 -6 -5 -4 -3 -2 -2 -2 -4 -5 -6 -7 -4 -5 -4 -1 0 1
-18 -18 -17 -16 -16 -15 -15 -14 -14 -14 -14 -14 -14 -14 -14 -14 -15 -13 -13 -14 -16 -16 -18 -17 -18 -17 -17 -16 -15 -15 -15 -15 -16 -15 -15 -15 -16 -15 -14 -13 -12 -13 -9 -8 -7 -6 -4 -3 -2 -1 -1 -1 -1 -1 -3 -6 -6 -5 -6 -5 -2 -1 1
-22 -20 -19 -19 -18 -17 -16 -16 -16 -16 -16 -16 -16 -16 -16 -15 -17 -18 -18 -18 -19 -17 -17 -16 -15 -16 -15 -16 -15 -15 -14 -15 -17 -17 -16 -17 -17 -17 -16 -15 -13 -12 -12 -9 -9 -9 -9 -8 -8 -7 -6 -5 -5 -3 -2 -4 -4 -5 -5 -5 -4 -1 -1
-24 -23 -18 -19 -19 -18 -18 -17 -17 -17 -17 -17 -16 -17 -16 -19 -20 -20 -21 -20 -20 -23 -19 -19 -19 -20 -20 -20 -19 -17 -17 -17 -17 -17 -18 -19 -18 -16 -15 -15 -14 -12 -12 -14 -13 -12 -10 -8 -9 -8 -7 -5 -5 -5 -4 -3 -3 -2 -4 -5 -3 -2 -2

ECMWFFLT1_sfc_dewp_222.txt.gz
Dewpoint
-2 -3 -1 1 5 7 12 11 11 14 16 17 17 18 19 20 21 22 23 24 24 25 25 26 28 28 28 29 28 28 28 27 27 25 23 23 21 20 21 21 19 17 17 17 16 9 6 6 13 12 17 18 19 19 20 27 23 22 21 22 22 22 27
-3 -4 -6 -4 -1 2 5 9 8 11 13 14 15 16 17 18 18 19 20 21 21 22 23 24 24 25 25 27 28 28 28 28 28 27 26 25 24 22 23 22 19 17 16 16 18 17 18 14 13 11 15 17 17 18 19 20 22 23 22 22 22 22 22
-3 -3 -6 -6 -4 -3 0 4 4 6 9 11 12 13 14 16 16 17 18 18 19 20 21 21 22 22 23 24 25 27 28 28 28 28 27 27 26 25 24 24 22 19 15 14 16 19 19 18 15 12 12 12 15 17 18 18 19 21 22 23 22 22 23
-2 -3 -4 -6 -7 -6 -3 0 3 3 6 8 10 11 12 13 15 16 16 16 17 18 19 20 20 20 21 21 22 23 23 24 25 27 28 27 27 27 27 26 25 24 21 17 17 17 19 20 20 21 14 11 11 12 12 15 17 19 21 21 22 22 23
-2 -1 -3 -4 -6 -6 -5 -2 0 2 3 6 8 10 10 11 13 14 15 15 16 18 18 19 19 19 19 19 19 20 20 21 21 23 25 26 27 28 28 27 27 27 26 24 23 21 19 20 21 20 14 10 11 13 12 14 15 17 18 20 21 20 22
-5 -1 -1 -3 -5 -6 -5 -4 -2 -1 1 4 7 10 10 11 10 12 13 14 16 16 17 17 17 17 17 17 17 17 18 20 20 21 22 22 23 25 27 27 27 28 27 27 26 25 25 24 23 22 21 18 11 10 11 15 17 17 17 17 18 20 21
-4 -3 -0 -2 -4 -5 -4 -4 -3 -2 -0 3 7 10 11 10 8 10 12 12 12 13 13 15 17 17 17 17 16 16 17 17 18 20 20 21 22 22 23 24 26 27 26 26 26 26 26 26 26 25 25 23 15 14 13 13 17 19 20 20 19 19 20
-4 -5 -1 -3 -3 -4 -3 -3 -4 -4 -0 4 8 11 10 9 9 9 10 10 10 10 11 12 15 16 16 17 17 16 16 15 17 17 17 18 19 20 20 21 22 23 25 25 25 24 24 25 25 25 25 25 25 24 24 19 16 18 20 20 19 21 20
-3 -5 -3 -5 -5 -4 -4 -3 -3 -3 1 7 10 12 10 9 9 9 8 8 8 8 9 9 10 11 13 15 17 19 20 19 19 14 15 16 16 17 18 19 20 20 21 22 24 24 24 23 23 24 24 23 23 23 23 22 21 21 21 20 20 20 18
-4 -5 -4 -6 -5 -4 -4 -3 -4 -1 5 10 11 12 11 11 10 9 8 7 6 6 6 7 7 9 11 13 15 17 19 19 19 19 16 14 13 14 16 17 17 18 19 19 20 21 22 22 22 23 23 23 23 24 24 24 24 24 23 23 23 23 20
-4 -5 -5 -6 -6 -6 -5 -4 -4 1 10 13 13 11 10 10 9 9 7 5 4 4 4 5 6 6 8 9 11 14 17 15 15 17 19 18 17 17 12 12 14 15 17 17 18 19 20 20 21 22 23 23 24 24 24 24 25 24 24 24 23 22 20
-6 -7 -6 -6 -7 -7 -6 -6 -2 7 10 12 13 11 10 10 8 6 4 3 2 2 3 3 4 4 4 6 8 11 13 13 13 14 15 17 17 17 17 16 13 12 12 13 14 15 17 18 19 20 20 21 22 21 21 20 21 22 22 22 22 22 21
-7 -8 -7 -8 -8 -8 -7 -8 -3 6 10 11 12 13 10 8 4 3 2 1 1 1 1 1 1 1 2 3 7 9 9 10 11 12 13 14 15 15 15 15 15 16 12 10 11 11 12 13 15 16 18 20 21 21 19 19 20 20 20 20 20 21 20
-8 -8 -9 -9 -10 -9 -9 -9 -5 4 9 10 11 11 11 6 3 2 1 -2 -2 -2 -1 -1 -0 1 3 4 5 6 6 7 7 8 10 11 10 9 12 14 13 14 14 14 10 8 8 10 12 13 15 17 17 16 17 17 18 19 19 19 19 20 20
-10 -9 -9 -10 -10 -10 -10 -10 -4 6 8 9 10 10 9 3 1 0 -1 -4 -5 -4 -4 -2 2 4 4 4 3 4 6 7 7 6 6 7 7 8 9 10 10 8 6 8 7 7 7 8 10 11 11 12 15 16 16 15 16 17 17 18 19 19 20
-10 -10 -10 -10 -11 -11 -12 -10 -4 5 7 9 9 10 5 4 3 0 -2 -5 -7 -5 -3 -1 -1 0 0 0 0 2 3 5 7 8 6 4 5 5 6 8 9 12 13 13 15 14 13 13 13 18 16 16 16 17 18 18 18 17 16 16 15 15 16
-10 -9 -10 -11 -11 -12 -11 -10 -7 -0 5 7 9 7 3 2 -0 -1 -1 -6 -7 -6 -4 -5 -4 -3 -3 -3 -3 1 3 6 6 6 5 3 2 2 2 3 3 9 11 13 14 15 15 16 16 17 17 17 17 15 14 12 12 13 16 16 14 15 14
-10 -10 -11 -11 -12 -12 -11 -11 -9 -5 3 6 8 5 2 2 2 -3 -7 -6 -6 -5 -5 -5 -2 -1 -3 -4 -3 2 4 8 6 5 4 0 -1 -1 1 0 -1 -1 2 9 10 10 10 11 11 11 11 13 13 12 11 10 7 9 12 12 13 13 15
-11 -11 -11 -12 -13 -9 -11 -12 -10 -7 -2 5 6 3 0 -0 -2 -5 -7 -8 -7 -8 -9 -7 -4 -2 -1 -2 -1 1 7 7 5 4 4 4 5 5 5 5 6 2 -1 -2 -0 2 3 3 4 4 4 6 8 9 9 9 8 8 7 7 11 13 14
-13 -14 -13 -12 -13 -13 -13 -13 -13 -10 -3 3 4 5 -1 -2 -6 -8 -9 -11 -8 -8 -10 -9 -9 -3 -3 -3 -3 -2 5 6 7 3 3 3 2 2 2 5 4 4 3 2 1 0 -0 -0 0 1 1 1 2 5 7 8 8 7 8 6 6 7 10
-15 -16 -15 -14 -13 -13 -14 -14 -12 -10 -5 -1 1 3 -2 -7 -9 -9 -8 -8 -7 -7 -7 -8 -9 -11 -5 -3 -3 -3 -1 6 7 4 3 3 2 3 5 7 2 5 4 -3 -2 -3 -3 -2 -1 -0 1 2 4 7 8 8 8 7 7 9 10 10 10
-16 -18 -17 -16 -15 -16 -16 -14 -11 -12 -9 -9 -4 2 -4 -9 -10 -7 -6 -6 -9 -10 -10 -11 -13 -13 -6 -5 -5 -4 3 7 6 2 -0 -0 4 5 4 1 3 -0 -4 -7 -7 -7 -5 -4 -3 -2 -1 1 3 5 7 8 9 9 8 7 7 7 7
-18 -19 -19 -20 -19 -19 -19 -18 -18 -11 -11 -10 -10 -2 -6 -8 -9 -7 -5 -9 -13 -12 -13 -13 -13 -9 -7 -7 -6 -1 4 3 -2 -3 -4 -0 1 -1 -1 -1 -3 -3 -8 -8 -8 -7 -7 -5 -6 -4 -3 -2 -1 1 1 3 4 6 8 8 7 6 6
-21 -23 -23 -22 -20 -21 -20 -18 -20 -15 -12 -12 -12 -12 -0 -7 -10 -8 -9 -9 -14 -14 -16 -14 -12 -7 -7 -7 -6 -6 -6 -5 -5 -6 -6 -5 -5 -4 -4 -5 -6 -9 -10 -7 -8 -9 -8 -8 -7 -6 -5 -3 -2 -1 -1 -0 1 2 3 3 3 4 5
-22 -23 -22 -24 -22 -21 -20 -18 -19 -21 -15 -12 -12 -11 -11 -12 -11 -11 -10 -12 -14 -12 -13 -10 -9 -9 -8 -8 -7 -7 -7 -7 -8 -8 -8 -7 -6 -6 -7 -8 -12 -11 -12 -12 -11 -9 -9 -8 -6 -4 -3 -2 -3 -1 0 -1 0 2 4 3 2 1 3
-23 -22 -23 -23 -23 -23 -20 -21 -22 -19 -19 -14 -13 -12 -12 -11 -11 -11 -11 -11 -11 -10 -10 -10 -9 -9 -9 -10 -9 -9 -11 -10 -10 -9 -8 -8 -7 -8 -9 -11 -10 -12 -12 -12 -11 -10 -9 -7 -5 -5 -3 -3 -2 -2 -2 -2 -2 -2 -2 -2 -3 -0 0
-22 -23 -23 -23 -22 -22 -21 -21 -21 -20 -21 -19 -18 -18 -16 -15 -15 -12 -11 -12 -14 -12 -14 -13 -10 -10 -10 -11 -11 -11 -11 -10 -9 -9 -11 -10 -10 -9 -9 -9 -11 -11 -10 -9 -8 -8 -7 -4 -1 -0 -0 -2 -1 0 0 1 2 3 2 1 -1 -3 -3
-24 -24 -23 -24 -23 -22 -21 -20 -23 -22 -20 -19 -18 -17 -16 -16 -16 -18 -19 -16 -16 -16 -14 -13 -10 -13 -15 -16 -17 -16 -18 -18 -16 -13 -12 -13 -13 -12 -11 -9 -6 -4 -4 -5 -7 -8 -6 -6 -6 -8 -6 -4 -4 -3 -2 -1 -1 -0 -1 -4 -5 -5 -4
-22 -21 -25 -24 -23 -21 -22 -21 -20 -20 -13 -14 -14 -15 -16 -16 -17 -19 -19 -12 -12 -12 -13 -15 -18 -20 -19 -21 -18 -18 -18 -18 -17 -16 -15 -17 -16 -14 -12 -13 -15 -15 -14 -14 -8 -11 -10 -11 -13 -12 -10 -9 -9 -7 -6 -3 -3 -1 -2 -2 -4 -4 -2
-19 -18 -20 -21 -21 -23 -20 -20 -19 -16 -15 -15 -14 -14 -14 -14 -13 -13 -13 -13 -12 -12 -15 -19 -22 -23 -23 -21 -23 -20 -19 -18 -18 -17 -17 -16 -12 -12 -14 -13 -14 -13 -14 -10 -11 -12 -12 -14 -12 -14 -13 -12 -9 -7 -7 -3 -1 -4 -3 -3 -2 -2 -3
-17 -17 -18 -19 -21 -20 -18 -18 -18 -17 -16 -15 -15 -15 -14 -14 -14 -14 -14 -14 -15 -17 -20 -21 -23 -23 -24 -21 -22 -21 -20 -18 -18 -17 -18 -17 -16 -16 -15 -12 -15 -15 -12 -14 -13 -14 -13 -13 -14 -14 -13 -13 -10 -8 -8 -8 -8 -10 -9 -9 -5 -6 -5
-19 -19 -19 -19 -20 -21 -22 -19 -19 -18 -17 -16 -16 -16 -15 -15 -15 -15 -15 -16 -16 -19 -22 -25 -24 -24 -24 -24 -24 -21 -19 -19 -19 -18 -19 -19 -19 -17 -17 -18 -17 -14 -20 -19 -19 -18 -15 -16 -15 -15 -14 -14 -13 -10 -12 -12 -11 -11 -11 -11 -12 -12 -9
-21 -21 -21 -21 -21 -20 -20 -20 -19 -19 -18 -17 -17 -17 -17 -16 -15 -17 -18 -18 -20 -26 -24 -26 -26 -25 -25 -24 -23 -22 -22 -20 -20 -20 -20 -21 -20 -20 -18 -19 -18 -17 -21 -17 -18 -18 -20 -18 -17 -16 -15 -14 -14 -15 -15 -12 -13 -11 -14 -13 -11 -8 -9
-23 -22 -22 -22 -22 -22 -21 -21 -20 -19 -19 -19 -18 -18 -18 -18 -21 -21 -21 -21 -25 -26 -26 -24 -26 -24 -25 -24 -22 -20 -20 -21 -22 -22 -22 -21 -22 -22 -22 -20 -20 -21 -19 -20 -19 -21 -20 -18 -19 -17 -19 -19 -19 -18 -17 -15 -14 -14 -15 -14 -13 -12 -11
-28 -25 -24 -25 -24 -23 -22 -21 -21 -21 -21 -20 -20 -20 -19 -21 -27 -28 -27 -26 -29 -26 -27 -25 -24 -24 -22 -23 -24 -24 -23 -25 -26 -25 -24 -24 -24 -24 -23 -22 -20 -19 -20 -21 -21 -22 -22 -20 -18 -20 -19 -18 -18 -18 -18 -17 -16 -16 -14 -13 -11 -12 -13
-30 -31 -25 -25 -24 -23 -23 -23 -23 -23 -22 -21 -21 -21 -20 -29 -31 -33 -31 -29 -28 -30 -26 -26 -25 -25 -25 -26 -27 -26 -27 -28 -27 -27 -27 -26 -26 -24 -24 -25 -24 -21 -21 -21 -23 -22 -20 -18 -21 -20 -19 -20 -19 -17 -15 -16 -16 -16 -14 -13 -12 -10 -10

ECMWFFLT1_sfc_dewp_228.txt.gz
Dewpoint
-7 -7 -6 -5 -3 -2 3 4 6 9 10 12 13 12 12 14 15 15 14 14 14 15 17 18 18 18 19 21 21 21 22 22 23 26 27 28 27 26 26 26 24 23 23 23 21 19 20 20 19 21 21 22 23 24 23 24 20 22 21 22 23 23 27
-8 -7 -6 -5 -5 -4 -2 0 4 7 9 11 11 11 11 11 13 13 12 12 12 12 13 15 16 16 17 19 19 19 20 20 21 23 23 24 27 27 27 27 24 22 21 21 22 22 22 21 18 21 18 20 21 23 23 23 22 21 20 22 23 23 24
-10 -9 -7 -6 -5 -5 -5 -3 -0 3 6 10 10 10 10 10 11 10 10 9 9 9 11 11 12 12 13 16 16 18 19 20 20 20 20 21 22 22 24 25 26 23 20 20 21 22 22 21 21 20 22 17 18 19 19 20 22 20 20 21 21 23 23
-9 -10 -9 -7 -6 -5 -5 -5 -3 3 6 8 9 8 8 9 9 8 8 7 7 7 8 9 9 9 11 12 13 15 16 18 19 19 19 19 20 20 20 22 23 25 25 22 22 23 23 23 23 24 22 23 22 21 21 19 18 17 21 21 22 23 24
-8 -9 -9 -9 -8 -6 -5 -5 -4 3 5 8 8 6 7 8 8 8 7 6 5 5 5 6 6 7 8 10 10 11 12 16 17 17 17 18 18 18 18 20 21 22 23 24 24 24 23 23 23 24 23 24 22 23 23 22 19 22 21 21 21 21 21
-7 -7 -9 -10 -9 -8 -6 -5 -5 2 4 7 8 6 7 8 7 6 5 4 3 2 3 3 4 4 6 7 8 9 11 14 15 16 16 17 16 17 16 17 18 19 20 21 22 24 25 25 24 23 23 25 25 24 24 24 24 22 23 20 22 20 19
-7 -7 -8 -10 -10 -8 -7 -6 -5 0 4 7 8 7 7 7 6 4 3 3 2 2 1 1 2 3 4 5 7 9 10 12 13 14 15 16 15 16 14 14 15 15 16 17 19 20 22 23 25 25 24 24 25 24 22 22 23 23 22 22 22 24 23
-8 -8 -9 -9 -9 -9 -7 -7 -8 -3 3 9 10 8 7 6 6 3 2 1 1 1 1 1 1 1 3 5 7 9 10 11 11 12 13 15 15 15 13 13 13 12 13 13 15 17 18 20 22 23 23 23 23 22 21 22 22 22 23 23 22 21 23
-9 -9 -9 -9 -9 -9 -9 -9 -9 -4 4 10 11 9 8 6 3 2 1 -0 -0 -0 -0 -0 0 1 3 5 6 6 6 8 10 11 11 13 14 14 13 12 11 11 11 11 11 11 14 15 17 19 20 19 20 20 20 21 21 22 22 23 22 22 19
-9 -9 -8 -9 -9 -9 -8 -9 -9 -4 8 12 11 10 7 5 3 1 -1 -3 -3 -3 -2 -2 -2 0 4 3 2 3 3 5 6 8 10 11 12 13 12 12 12 11 11 11 10 11 11 10 12 14 13 14 15 18 17 17 16 17 19 20 19 20 19
-9 -8 -8 -9 -9 -9 -9 -9 -8 0 14 14 13 8 5 3 2 1 -1 -3 -4 -4 -4 -4 -4 -3 -0 -0 1 0 1 3 4 6 7 9 11 11 11 11 11 12 12 11 10 11 10 10 9 9 11 11 12 13 13 13 13 14 16 17 18 17 19
-9 -9 -9 -9 -9 -10 -10 -10 -6 11 13 13 12 10 3 3 1 0 -1 -2 -4 -5 -5 -5 -5 -5 -5 -4 -1 -1 -3 -1 3 4 5 7 8 8 10 10 10 10 9 10 9 9 9 10 8 9 9 9 11 11 11 11 12 12 13 14 15 16 17
-10 -9 -9 -9 -10 -10 -10 -11 -6 9 11 12 11 12 3 2 1 1 -1 -3 -5 -6 -6 -6 -6 -7 -6 -6 -1 -1 -4 -4 -2 2 4 5 6 6 7 8 8 8 8 8 7 7 8 9 8 9 9 9 10 11 9 11 12 12 13 13 13 13 14
-10 -10 -11 -10 -11 -11 -11 -11 -7 7 9 10 11 11 6 -1 -3 -4 -4 -4 -7 -8 -8 -8 -7 -7 -6 -6 -6 -6 -4 -4 -3 -3 -2 -1 -1 -1 2 5 5 6 7 8 5 4 5 6 7 9 11 12 13 11 10 12 11 12 11 11 12 13 14
-12 -12 -12 -13 -13 -13 -13 -12 -6 7 9 9 11 9 4 -6 -8 -8 -8 -8 -8 -8 -8 -8 -8 -8 -7 -7 -7 -5 -2 -3 -2 -1 -1 -3 -4 -3 -2 -1 -0 1 3 4 4 4 3 4 7 9 11 13 14 13 11 10 9 10 10 11 12 12 12
-12 -13 -14 -13 -15 -14 -14 -13 -7 6 8 8 10 6 -6 -9 -10 -11 -11 -10 -9 -9 -7 -7 -6 -6 -8 -9 -9 -3 -2 1 3 1 -3 -5 -5 -5 -4 -4 3 10 10 8 9 9 10 10 11 15 15 14 12 11 9 8 7 8 7 9 7 6 8
-13 -14 -15 -14 -15 -16 -15 -15 -11 -1 7 7 8 2 -8 -12 -12 -13 -11 -11 -12 -10 -10 -9 -7 -8 -9 -9 -9 -4 -1 4 2 -3 -4 -4 -6 -6 -8 -5 -3 3 9 10 11 12 12 13 13 12 12 12 11 8 6 4 1 0 4 3 2 3 4
-16 -16 -16 -16 -17 -15 -17 -17 -13 -9 2 5 6 0 -9 -11 -14 -17 -15 -13 -12 -13 -12 -10 -7 -6 -10 -10 -9 -4 -0 6 0 -1 -4 -5 -7 -9 -7 -5 -5 -6 -2 3 2 1 2 2 2 3 3 7 7 4 3 2 -3 -1 3 0 0 1 2
-19 -17 -18 -18 -18 -13 -18 -18 -15 -11 -6 3 4 1 -6 -10 -15 -17 -17 -14 -14 -14 -15 -13 -10 -8 -8 -8 -6 -4 4 3 -1 -2 -5 -6 -9 -10 -10 -6 -7 -8 -6 -5 -6 -7 -6 -6 -5 -5 -5 -3 0 1 1 -3 -2 2 2 -0 -1 0 2
-21 -21 -20 -19 -20 -19 -21 -19 -18 -14 -10 1 2 4 -4 -10 -14 -17 -19 -18 -16 -16 -17 -16 -15 -11 -9 -8 -7 -6 1 3 4 -0 -7 -8 -11 -11 -10 -4 -9 -7 -6 -8 -9 -10 -9 -9 -9 -9 -9 -10 -9 -6 -5 -0 -3 -3 -1 1 1 2 3
-23 -24 -22 -22 -20 -21 -21 -20 -19 -16 -13 -6 -4 2 -4 -12 -15 -17 -18 -19 -17 -17 -17 -15 -16 -17 -9 -9 -8 -7 -5 2 4 -1 -8 -11 -14 -9 -5 -6 -10 -9 -8 -11 -10 -10 -11 -11 -11 -10 -11 -11 -9 -7 -5 -5 -4 -5 -5 -2 -1 -1 -1
-24 -26 -24 -23 -22 -23 -23 -20 -16 -19 -16 -15 -9 -0 -7 -11 -16 -12 -14 -16 -21 -21 -17 -17 -18 -17 -11 -9 -9 -8 -2 3 1 -5 -8 -10 -6 -6 -8 -10 -9 -14 -14 -16 -13 -13 -13 -12 -14 -12 -12 -10 -8 -7 -5 -7 -8 -7 -7 -6 -4 -4 -4
-27 -27 -27 -28 -25 -25 -25 -24 -23 -17 -18 -16 -15 -8 -8 -10 -12 -11 -13 -18 -20 -19 -16 -18 -18 -14 -10 -9 -8 -5 1 -1 -7 -8 -11 -7 -7 -11 -12 -11 -15 -12 -17 -17 -16 -15 -15 -14 -13 -13 -12 -12 -11 -9 -9 -9 -8 -8 -8 -5 -3 -2 -1
-28 -28 -27 -27 -26 -27 -27 -26 -28 -20 -18 -17 -16 -14 -3 -10 -13 -13 -15 -15 -19 -18 -19 -17 -17 -12 -9 -9 -9 -9 -8 -8 -10 -10 -10 -11 -13 -13 -13 -14 -16 -19 -19 -16 -17 -18 -18 -16 -15 -14 -14 -12 -10 -11 -10 -9 -9 -8 -8 -7 -6 -5 -1
-28 -27 -27 -27 -26 -25 -25 -27 -28 -29 -22 -18 -17 -16 -15 -15 -14 -15 -14 -15 -17 -15 -16 -11 -10 -9 -9 -9 -9 -9 -9 -12 -13 -13 -13 -14 -14 -13 -18 -18 -21 -19 -21 -21 -20 -18 -17 -16 -14 -13 -11 -10 -10 -8 -9 -10 -10 -10 -9 -8 -8 -7 -4
-27 -27 -28 -27 -26 -26 -26 -26 -26 -25 -27 -20 -19 -18 -17 -16 -16 -15 -14 -14 -14 -13 -13 -13 -11 -11 -11 -11 -11 -13 -17 -14 -17 -15 -15 -15 -15 -21 -21 -21 -21 -22 -20 -21 -19 -17 -16 -15 -13 -14 -11 -10 -8 -11 -13 -13 -11 -11 -10 -10 -10 -7 -6
-27 -28 -29 -28 -26 -29 -27 -27 -27 -26 -26 -25 -25 -24 -21 -20 -19 -16 -15 -17 -19 -16 -18 -16 -14 -16 -15 -15 -15 -16 -16 -16 -16 -19 -20 -23 -23 -22 -22 -20 -22 -20 -19 -17 -17 -16 -15 -14 -13 -10 -9 -11 -13 -15 -15 -14 -9 -12 -14 -11 -11 -9 -8
-29 -29 -28 -30 -29 -30 -31 -29 -32 -29 -26 -25 -23 -21 -21 -22 -22 -23 -24 -21 -20 -20 -19 -20 -17 -20 -23 -24 -25 -25 -27 -28 -26 -24 -22 -24 -25 -24 -21 -16 -14 -13 -18 -18 -16 -16 -14 -13 -15 -18 -15 -14 -17 -18 -16 -14 -13 -13 -14 -13 -13 -14 -14
-30 -27 -30 -30 -30 -29 -31 -30 -30 -28 -17 -18 -19 -19 -20 -20 -22 -24 -23 -17 -16 -20 -23 -24 -27 -29 -25 -29 -26 -27 -29 -29 -28 -25 -24 -27 -26 -25 -25 -24 -24 -24 -22 -20 -18 -19 -16 -17 -17 -17 -18 -20 -20 -17 -17 -17 -18 -16 -17 -16 -14 -15 -13
-24 -24 -26 -28 -27 -29 -29 -29 -25 -20 -19 -19 -18 -18 -18 -18 -17 -17 -17 -17 -17 -21 -31 -33 -34 -33 -31 -29 -31 -30 -29 -27 -29 -27 -26 -27 -20 -22 -25 -23 -22 -25 -23 -19 -20 -19 -19 -18 -18 -20 -19 -20 -20 -18 -19 -17 -12 -18 -18 -18 -20 -18 -16
-20 -20 -21 -21 -27 -27 -22 -22 -22 -21 -20 -19 -19 -18 -18 -18 -18 -18 -18 -18 -20 -30 -34 -32 -32 -32 -33 -31 -32 -31 -29 -29 -29 -27 -28 -27 -27 -27 -25 -22 -26 -25 -22 -22 -22 -20 -21 -21 -22 -21 -19 -21 -19 -19 -17 -21 -19 -22 -22 -22 -19 -19 -17
-22 -22 -22 -22 -23 -24 -29 -23 -22 -21 -20 -19 -19 -19 -19 -19 -18 -18 -18 -19 -23 -31 -34 -34 -35 -34 -34 -33 -32 -30 -28 -29 -30 -29 -29 -29 -29 -27 -26 -26 -27 -24 -28 -26 -25 -24 -21 -22 -22 -22 -21 -21 -20 -18 -22 -23 -22 -21 -23 -22 -22 -20 -17
-23 -23 -23 -23 -23 -23 -22 -23 -22 -22 -21 -21 -20 -20 -21 -20 -19 -19 -20 -23 -32 -36 -35 -36 -35 -35 -34 -33 -32 -32 -33 -31 -30 -30 -30 -30 -29 -30 -29 -30 -28 -25 -28 -25 -24 -24 -26 -24 -24 -23 -22 -21 -22 -23 -24 -23 -23 -21 -24 -24 -25 -20 -19
-25 -25 -26 -25 -24 -24 -23 -23 -23 -23 -23 -22 -22 -21 -21 -21 -22 -22 -24 -26 -34 -35 -36 -36 -36 -34 -33 -33 -32 -31 -31 -31 -32 -31 -31 -30 -31 -32 -33 -31 -31 -32 -28 -28 -26 -28 -27 -26 -26 -25 -26 -25 -26 -25 -26 -26 -24 -24 -26 -26 -25 -23 -21
-35 -29 -28 -27 -26 -25 -25 -25 -25 -25 -24 -24 -23 -23 -22 -24 -33 -36 -36 -35 -36 -34 -36 -36 -35 -35 -33 -34 -34 -33 -33 -34 -35 -35 -33 -33 -33 -34 -34 -33 -32 -30 -30 -29 -30 -30 -29 -28 -25 -27 -26 -25 -26 -26 -27 -25 -25 -25 -24 -24 -23 -22 -23
-37 -38 -28 -28 -26 -26 -26 -26 -26 -26 -25 -24 -23 -23 -24 -34 -38 -39 -37 -36 -37 -37 -35 -34 -34 -34 -34 -36 -36 -36 -36 -37 -37 -35 -37 -37 -36 -33 -33 -34 -34 -30 -30 -30 -31 -30 -27 -25 -29 -28 -27 -29 -29 -28 -26 -25 -24 -23 -23 -21 -21 -20 -21

ECMWFFLT1_sfc_dewp_234.txt.gz
Dewpoint
-6 -5 -3 -1 1 3 6 10 9 10 12 12 10 8 8 8 8 8 7 8 9 10 11 12 12 13 14 16 17 18 19 19 20 21 20 21 21 21 22 23 24 24 25 26 28 27 28 28 27 28 28 29 29 30 30 31 30 30 30 31 31 31 32
-6 -7 -5 -4 -2 1 3 7 10 8 10 11 9 8 7 7 6 5 6 7 7 8 9 10 10 11 12 14 15 17 17 18 19 19 18 19 19 18 20 21 21 22 23 23 26 26 27 28 29 27 29 28 29 29 29 29 29 29 29 29 29 30 30
-7 -7 -7 -6 -3 -1 0 3 7 6 7 9 7 6 5 5 5 4 4 5 6 6 8 8 9 9 11 12 13 14 15 16 17 18 17 18 18 18 18 19 19 20 21 22 23 25 25 26 27 27 27 28 29 29 29 28 28 29 29 29 29 29 29
-6 -7 -8 -6 -5 -3 -1 1 4 7 6 6 3 2 2 4 3 2 2 3 5 6 6 7 7 8 8 9 10 11 12 13 15 16 16 16 17 16 17 17 17 18 19 20 21 22 23 24 25 25 25 26 27 28 27 27 28 28 28 28 28 28 28
-5 -6 -7 -7 -6 -4 -2 0 2 5 6 4 2 0 -0 1 2 1 0 1 2 4 5 6 6 6 6 7 7 8 9 10 12 14 15 14 15 14 15 15 15 15 16 18 19 20 22 22 23 25 23 21 23 24 24 24 25 26 26 26 27 27 28
-3 -3 -6 -7 -6 -5 -3 -1 1 3 7 4 2 1 -0 -0 -2 -2 -0 -0 -1 0 3 4 4 4 5 5 5 6 7 9 10 12 12 13 14 14 13 14 14 14 14 15 14 16 16 18 19 21 20 18 20 21 20 19 20 22 23 23 23 24 27
-4 -4 -4 -6 -6 -5 -4 -2 1 4 6 5 3 2 3 2 -2 -3 -4 -3 -2 -1 -1 0 1 3 3 4 5 5 6 7 8 10 10 11 11 13 11 13 12 13 12 12 11 12 14 13 15 16 12 14 14 16 17 15 15 16 18 19 21 20 25
-5 -4 -4 -6 -7 -6 -5 -3 -0 3 6 7 5 4 3 -1 1 -1 -1 -1 -1 -2 -1 -1 0 2 2 4 4 5 6 7 7 8 8 9 10 11 10 11 10 12 10 9 10 9 11 9 10 9 12 12 12 12 12 13 13 13 13 15 18 18 23
-6 -5 -5 -7 -7 -7 -4 -1 0 4 8 7 6 5 3 1 -1 -1 -2 -2 -2 -1 -1 -1 -0 1 1 2 2 4 5 7 8 7 6 7 8 9 9 9 9 9 7 7 9 9 10 7 7 8 8 8 6 7 8 10 12 12 13 14 14 16 22
-6 -5 -6 -7 -6 -5 -4 -3 -1 2 10 7 5 4 2 1 -1 -1 -2 -2 -3 -2 -2 -1 -0 0 -0 0 2 2 4 5 7 6 5 4 5 6 7 7 7 7 5 6 5 6 5 5 8 6 9 8 6 6 7 10 11 10 10 11 13 15 20
-6 -6 -6 -7 -6 -6 -5 -4 -3 3 12 11 8 2 1 -1 -2 -2 -3 -3 -3 -3 -4 -3 -2 -2 -1 -1 1 1 2 4 5 4 4 4 4 6 6 6 6 6 6 6 4 5 5 7 6 7 9 7 6 9 10 10 10 10 10 11 10 10 14
-6 -7 -7 -7 -7 -7 -7 -6 -3 12 12 10 9 3 -3 -4 -4 -4 -5 -4 -4 -5 -4 -3 -4 -3 -3 -2 -2 -0 1 2 4 3 2 3 4 6 7 9 8 6 5 7 4 5 5 6 6 7 7 8 9 9 9 10 10 10 10 10 9 9 9
-7 -7 -8 -7 -8 -7 -7 -7 -4 10 12 9 8 7 -3 -8 -6 -7 -6 -5 -4 -4 -4 -4 -4 -5 -5 -4 -3 -3 0 2 4 2 1 2 4 4 5 7 8 9 8 7 4 5 4 6 7 6 8 9 9 9 9 9 9 9 8 8 7 6 7
-8 -8 -8 -8 -8 -9 -8 -8 -6 8 11 10 8 7 -0 -6 -7 -7 -6 -5 -5 -6 -6 -5 -5 -6 -7 -5 -5 -4 -1 1 3 0 -1 -1 -0 1 2 3 5 6 6 7 5 4 3 5 6 5 7 8 9 7 6 6 5 6 6 6 6 7 8
-9 -9 -9 -9 -9 -9 -10 -9 -7 8 9 10 7 5 -3 -8 -8 -10 -8 -8 -7 -5 -6 -6 -5 -5 -6 -6 -6 -6 -3 -1 2 -1 -3 -3 -3 -2 -2 -1 1 3 3 3 3 3 3 3 4 5 5 6 6 6 5 5 4 5 5 6 6 6 8
-10 -11 -11 -11 -10 -10 -11 -11 -8 5 7 8 8 2 -8 -9 -10 -10 -10 -9 -8 -8 -8 -8 -6 -6 -6 -6 -6 -6 -3 -2 1 -1 -4 -5 -5 -4 -4 -4 -1 4 5 4 3 1 1 1 3 7 4 4 4 3 2 1 -0 2 2 1 1 -0 -0
-12 -12 -12 -12 -12 -11 -12 -12 -10 -3 4 7 8 -0 -7 -10 -12 -12 -10 -10 -9 -10 -9 -9 -8 -7 -8 -7 -8 -6 -4 0 1 -1 -4 -6 -7 -6 -7 -7 -5 -2 3 5 5 4 4 4 5 5 5 5 5 3 -0 -5 -5 -3 -2 -3 -3 -3 -3
-13 -13 -13 -13 -14 -13 -13 -14 -12 -10 -4 5 7 1 -8 -10 -13 -13 -12 -10 -10 -11 -11 -10 -10 -10 -10 -9 -9 -6 -3 4 0 -2 -4 -7 -7 -8 -8 -6 -8 -8 -6 -5 -6 -6 -6 -5 -5 -5 -4 1 0 -2 -3 -9 -10 -7 -6 -4 -3 -5 -4
-14 -14 -14 -14 -14 -14 -15 -15 -14 -12 -9 3 5 -0 -5 -10 -14 -15 -13 -13 -13 -13 -13 -12 -12 -12 -10 -9 -9 -6 4 3 -1 -2 -4 -6 -7 -9 -8 -7 -10 -10 -11 -12 -12 -13 -10 -11 -9 -8 -8 -7 -5 -4 -4 -7 -8 -10 -8 -7 -5 -5 -5
-15 -14 -15 -14 -14 -15 -15 -15 -15 -14 -11 -0 2 4 -5 -12 -14 -15 -14 -14 -15 -17 -15 -14 -14 -15 -11 -10 -7 -6 2 4 3 -2 -5 -7 -9 -9 -9 -7 -10 -11 -12 -12 -13 -12 -11 -10 -9 -9 -9 -9 -8 -7 -6 -5 -5 -6 -8 -9 -9 -7 -6
-16 -16 -16 -16 -15 -17 -17 -16 -16 -15 -12 -7 -5 2 -5 -13 -14 -15 -15 -15 -16 -17 -16 -16 -16 -14 -13 -11 -8 -6 -5 3 5 -1 -7 -8 -8 -7 -7 -9 -14 -14 -14 -15 -15 -16 -16 -17 -16 -16 -15 -14 -13 -13 -11 -9 -7 -6 -6 -8 -10 -10 -8
-19 -19 -18 -18 -18 -17 -18 -19 -18 -17 -16 -14 -9 -0 -7 -13 -14 -13 -14 -16 -17 -16 -16 -15 -15 -15 -14 -11 -8 -7 -1 3 2 -2 -8 -8 -4 -5 -8 -13 -15 -17 -18 -19 -19 -19 -19 -19 -19 -18 -17 -15 -14 -13 -11 -8 -7 -6 -5 -5 -5 -6 -7
-19 -20 -21 -21 -21 -19 -19 -19 -20 -19 -17 -16 -14 -9 -9 -10 -13 -12 -15 -17 -18 -17 -16 -15 -15 -15 -12 -10 -8 -4 1 -1 -5 -8 -9 -5 -6 -9 -11 -14 -19 -18 -20 -20 -20 -20 -20 -19 -18 -17 -16 -15 -14 -12 -8 -8 -7 -5 -4 -4 -3 -2 -2
-24 -22 -22 -22 -24 -24 -22 -20 -22 -21 -20 -19 -17 -15 -4 -10 -13 -13 -15 -16 -18 -17 -17 -16 -15 -13 -10 -9 -8 -7 -7 -7 -10 -11 -8 -9 -12 -13 -14 -18 -19 -20 -21 -20 -20 -21 -20 -19 -18 -17 -15 -13 -11 -10 -8 -7 -6 -6 -4 -3 -3 -1 -1
-26 -25 -26 -25 -26 -25 -25 -24 -23 -22 -21 -19 -19 -18 -16 -16 -15 -15 -15 -17 -17 -16 -17 -14 -12 -11 -11 -10 -10 -11 -12 -14 -15 -14 -15 -15 -15 -16 -22 -22 -21 -21 -22 -22 -22 -21 -18 -17 -17 -14 -12 -10 -9 -8 -7 -7 -7 -6 -5 -5 -4 -4 -5
-27 -27 -26 -25 -25 -24 -24 -23 -23 -23 -23 -21 -21 -20 -19 -17 -17 -17 -17 -16 -17 -15 -14 -13 -13 -14 -15 -16 -17 -18 -20 -19 -20 -17 -17 -17 -17 -21 -23 -23 -23 -21 -20 -20 -20 -18 -18 -17 -15 -15 -14 -12 -12 -13 -13 -11 -11 -11 -10 -9 -10 -10 -10
-27 -27 -27 -26 -25 -24 -23 -23 -24 -24 -23 -24 -23 -22 -21 -20 -20 -18 -18 -19 -19 -17 -18 -18 -18 -18 -18 -19 -19 -19 -19 -19 -19 -22 -24 -24 -24 -23 -23 -23 -20 -18 -18 -18 -18 -18 -18 -17 -17 -16 -17 -17 -17 -17 -15 -13 -12 -13 -13 -12 -12 -12 -12
-29 -27 -26 -26 -25 -25 -24 -24 -24 -24 -25 -23 -23 -22 -22 -22 -21 -21 -21 -21 -20 -18 -18 -19 -18 -20 -21 -23 -24 -26 -26 -27 -26 -26 -25 -26 -25 -24 -22 -19 -15 -14 -17 -19 -19 -20 -19 -19 -19 -20 -20 -19 -19 -19 -17 -15 -15 -15 -15 -14 -14 -14 -15
-26 -25 -24 -24 -25 -25 -25 -25 -25 -24 -20 -21 -19 -20 -22 -22 -22 -22 -21 -19 -17 -19 -18 -20 -22 -23 -24 -25 -26 -27 -28 -28 -28 -26 -25 -23 -23 -23 -21 -20 -20 -21 -21 -21 -21 -22 -21 -21 -21 -21 -21 -21 -22 -22 -20 -19 -18 -18 -18 -17 -17 -17 -16
-24 -23 -23 -24 -24 -24 -25 -25 -24 -20 -18 -18 -18 -17 -18 -18 -17 -17 -19 -18 -17 -18 -21 -22 -24 -25 -26 -26 -27 -28 -29 -29 -28 -26 -26 -26 -22 -23 -23 -22 -21 -22 -22 -22 -22 -22 -22 -22 -22 -23 -23 -23 -23 -23 -22 -22 -19 -21 -21 -20 -20 -19 -18
-20 -19 -20 -22 -24 -23 -21 -21 -21 -21 -19 -18 -18 -18 -17 -18 -18 -18 -18 -17 -20 -22 -23 -24 -26 -26 -27 -27 -28 -29 -29 -29 -27 -27 -26 -26 -25 -24 -23 -22 -23 -23 -23 -24 -24 -24 -23 -23 -23 -24 -24 -24 -24 -24 -24 -25 -24 -24 -24 -23 -21 -21 -20
-21 -20 -20 -20 -21 -23 -25 -23 -22 -21 -20 -19 -18 -18 -18 -18 -18 -18 -18 -19 -19 -23 -25 -26 -27 -28 -28 -28 -29 -29 -29 -29 -28 -27 -26 -26 -26 -25 -24 -24 -24 -23 -25 -25 -25 -25 -24 -24 -24 -24 -24 -25 -25 -23 -25 -25 -26 -26 -25 -25 -24 -23 -20
-22 -22 -22 -22 -21 -21 -21 -22 -22 -22 -20 -20 -19 -19 -20 -20 -19 -20 -19 -20 -23 -26 -27 -27 -28 -29 -29 -29 -30 -29 -30 -29 -28 -27 -27 -27 -26 -26 -26 -25 -24 -25 -27 -26 -26 -25 -26 -26 -25 -25 -25 -25 -25 -26 -26 -26 -26 -26 -26 -25 -25 -24 -22
-26 -25 -25 -24 -24 -24 -23 -23 -23 -22 -22 -22 -21 -21 -21 -21 -23 -19 -19 -21 -25 -27 -28 -29 -29 -29 -29 -30 -30 -30 -30 -29 -28 -28 -28 -28 -27 -27 -26 -25 -25 -26 -27 -27 -27 -27 -27 -27 -26 -26 -27 -27 -27 -27 -26 -26 -26 -26 -25 -25 -24 -24 -23
-32 -31 -29 -29 -27 -26 -25 -24 -24 -24 -24 -24 -23 -23 -22 -21 -26 -27 -27 -26 -27 -28 -29 -30 -30 -31 -31 -31 -31 -30 -30 -29 -29 -29 -29 -29 -29 -28 -28 -28 -28 -28 -27 -28 -28 -28 -28 -27 -27 -27 -27 -28 -28 -28 -28 -28 -27 -26 -26 -25 -24 -23 -23
-32 -32 -29 -29 -28 -26 -25 -25 -25 -26 -25 -24 -23 -23 -23 -28 -29 -28 -29 -29 -29 -30 -31 -31 -31 -31 -32 -31 -31 -30 -30 -30 -30 -30 -30 -30 -30 -30 -30 -29 -29 -29 -29 -28 -29 -28 -28 -27 -28 -29 -29 -29 -29 -28 -27 -27 -26 -26 -25 -24 -24 -23 -23

ECMWFFLT1_sfc_dewp_240.txt.gz
Dewpoint
4 4 4 5 5 6 7 8 9 11 11 10 9 8 8 8 8 7 6 6 6 7 7 7 6 7 6 9 8 10 10 11 12 15 15 16 18 17 18 19 19 19 24 26 27 26 27 27 27 24 25 26 28 27 29 30 29 30 29 29 29 30 31
3 3 4 4 4 5 6 7 8 9 11 9 8 8 7 7 7 6 5 5 5 5 5 6 5 5 5 7 6 8 8 9 10 12 13 12 14 14 15 18 17 17 19 20 23 23 24 25 24 21 21 23 25 25 25 26 26 26 27 27 28 28 29
2 2 3 3 3 4 5 5 7 8 10 9 8 7 6 6 6 5 5 4 4 4 5 4 4 4 4 6 5 7 7 8 8 10 11 10 11 12 13 15 17 16 16 17 19 22 21 23 24 20 19 20 22 25 23 23 24 24 24 25 26 28 27
2 1 2 1 2 3 3 4 5 6 9 8 7 6 5 5 4 4 4 4 4 3 3 3 2 2 3 4 4 5 5 7 7 8 9 9 8 10 11 12 15 16 16 16 16 17 21 21 22 19 17 17 18 22 21 20 21 21 21 21 24 25 27
1 -0 1 0 1 1 2 3 4 5 7 8 6 5 5 4 4 3 3 3 3 3 3 2 2 2 3 3 3 4 4 6 5 7 6 7 6 8 9 10 12 14 14 15 14 15 17 19 20 19 16 14 14 18 18 17 17 16 19 18 21 22 26
-1 -1 -1 -0 -0 0 1 2 3 4 5 7 6 5 4 3 3 2 2 2 2 3 2 2 2 2 2 2 3 3 4 5 5 5 4 5 5 6 7 8 9 11 12 12 14 13 15 13 15 13 13 13 13 14 13 13 14 14 16 16 17 19 23
-2 -2 -2 -2 -2 -2 -1 -0 1 2 3 6 6 5 4 2 2 1 1 1 -0 1 2 2 1 2 1 1 3 3 4 5 4 4 3 4 5 6 6 7 7 9 10 9 11 11 12 11 13 11 9 10 11 10 12 11 12 12 14 15 15 18 20
-3 -3 -3 -3 -3 -3 -3 -2 -1 -0 0 5 5 4 2 2 1 0 -0 -0 -1 -0 1 1 1 1 1 1 2 3 4 5 4 3 2 3 4 5 6 6 6 7 7 7 8 8 8 9 8 8 9 9 8 7 8 10 10 9 10 13 15 17 15
-4 -4 -4 -4 -4 -5 -4 -3 -3 -2 -0 7 4 2 1 -0 -0 -0 -1 -1 -2 -2 -1 -0 0 1 2 1 1 3 3 4 6 3 1 2 4 5 5 5 4 5 5 6 6 7 7 7 7 7 6 6 5 4 5 6 8 10 12 12 12 15 13
-4 -4 -5 -5 -6 -6 -6 -5 -5 -3 3 10 3 2 -1 -1 -2 -1 -1 -2 -3 -3 -2 -2 -1 -1 0 0 -1 1 -0 1 4 5 3 1 2 4 3 3 3 3 3 4 4 5 5 4 5 5 4 3 3 3 3 2 6 7 8 8 9 9 12
-5 -6 -6 -7 -7 -7 -7 -6 -6 -4 11 13 10 -0 -1 -3 -3 -2 -2 -3 -4 -4 -4 -3 -3 -2 -1 -1 -1 -1 -1 -1 0 3 3 2 1 2 3 2 2 2 2 2 2 4 3 2 1 2 3 2 2 3 2 2 4 5 5 4 4 4 7
-6 -6 -6 -7 -7 -8 -8 -8 -7 5 10 11 11 8 -3 -3 -5 -4 -3 -3 -4 -4 -5 -4 -4 -3 -3 -2 -2 -2 -3 -2 -1 0 2 1 0 -1 2 3 2 2 1 1 -1 -0 0 -1 -1 -1 1 1 1 1 0 2 2 2 2 2 2 2 2
-6 -7 -7 -8 -8 -8 -8 -9 -7 3 9 10 10 11 1 -4 -5 -5 -4 -4 -4 -5 -5 -5 -5 -5 -5 -4 -3 -3 -3 -3 -3 -2 1 1 -1 -2 -2 1 2 2 2 1 -2 -3 -4 -2 -2 -3 -1 -0 0 1 -1 0 1 0 1 1 0 0 2
-8 -8 -8 -8 -8 -9 -9 -9 -8 1 8 9 10 10 4 -5 -6 -6 -5 -5 -5 -5 -6 -6 -5 -5 -6 -6 -5 -5 -4 -4 -4 -3 -1 0 -1 -2 -3 -2 -1 -1 0 1 -1 -3 -4 -3 -2 -3 -2 0 1 -0 -1 -0 -1 0 -1 -1 -1 -0 1
-11 -10 -9 -9 -9 -9 -10 -10 -8 4 7 8 8 9 3 -6 -7 -6 -6 -6 -6 -5 -6 -6 -5 -6 -6 -6 -6 -6 -5 -4 -4 -2 -1 -2 -3 -2 -3 -2 -2 -2 -2 -1 -1 -2 -3 -3 -2 -2 -1 0 1 1 1 1 -0 -0 -1 -2 -2 -2 0
-12 -11 -10 -9 -10 -10 -10 -10 -8 3 5 7 7 8 -4 -7 -9 -8 -8 -8 -8 -7 -6 -6 -7 -7 -7 -7 -7 -7 -5 -4 -2 -1 -3 -4 -4 -4 -3 -4 -3 2 2 1 2 1 -0 -1 -0 4 0 1 1 -0 -2 -2 -2 -4 -6 -7 -7 -4 -1
-14 -12 -11 -11 -11 -12 -12 -12 -10 -4 3 5 7 3 -5 -8 -10 -10 -10 -10 -9 -9 -8 -8 -7 -8 -7 -7 -8 -7 -5 -2 -1 -3 -5 -5 -5 -5 -6 -5 -6 -2 1 2 2 3 3 4 4 4 5 5 5 2 -3 -10 -11 -11 -8 -9 -9 -8 -7
-15 -13 -13 -13 -14 -14 -14 -13 -11 -10 -5 4 5 -0 -6 -8 -11 -13 -13 -12 -11 -10 -9 -8 -8 -9 -9 -8 -8 -6 -5 1 -2 -5 -4 -3 -5 -9 -8 -8 -9 -8 -6 -5 -6 -7 -7 -7 -7 -6 -5 -0 0 -4 -3 -10 -13 -11 -11 -11 -10 -10 -8
-16 -15 -15 -16 -16 -15 -14 -14 -12 -11 -9 2 4 -1 -6 -8 -14 -16 -16 -13 -13 -12 -12 -11 -11 -10 -9 -9 -7 -7 3 1 -4 -3 -5 -6 -10 -11 -12 -8 -11 -10 -8 -9 -10 -11 -11 -10 -9 -8 -9 -7 -5 -4 -3 -9 -10 -9 -12 -10 -10 -8 -7
-17 -18 -18 -17 -17 -16 -15 -15 -14 -12 -11 -2 2 2 -7 -10 -16 -18 -17 -16 -15 -15 -14 -14 -12 -12 -11 -10 -8 -8 -2 2 0 -2 -7 -9 -11 -11 -11 -8 -12 -10 -9 -10 -11 -11 -11 -11 -11 -11 -12 -12 -10 -7 -5 -5 -9 -11 -11 -11 -11 -10 -10
-19 -19 -19 -18 -17 -16 -16 -16 -15 -14 -12 -9 -7 0 -7 -13 -16 -17 -16 -18 -16 -16 -16 -15 -14 -14 -12 -10 -10 -10 -8 3 5 -2 -8 -10 -12 -8 -8 -10 -15 -12 -12 -13 -13 -12 -12 -11 -12 -12 -12 -14 -13 -10 -9 -8 -8 -9 -10 -11 -12 -11 -10
-19 -19 -19 -18 -17 -17 -17 -15 -14 -16 -13 -14 -11 -2 -9 -14 -16 -13 -15 -18 -21 -18 -17 -17 -16 -15 -13 -12 -11 -11 -2 3 0 -7 -10 -11 -7 -7 -10 -12 -13 -14 -14 -14 -14 -15 -14 -14 -14 -13 -15 -14 -13 -12 -9 -12 -13 -11 -11 -9 -12 -10 -9
-21 -21 -21 -20 -19 -19 -18 -18 -17 -15 -16 -14 -15 -12 -12 -13 -13 -13 -14 -19 -20 -20 -18 -17 -17 -16 -14 -13 -11 -7 0 -1 -10 -11 -12 -9 -8 -10 -12 -13 -17 -14 -17 -17 -16 -18 -19 -17 -16 -16 -17 -15 -14 -13 -13 -13 -13 -12 -12 -10 -8 -6 -6
-22 -22 -23 -23 -22 -21 -20 -19 -18 -15 -16 -17 -17 -16 -7 -11 -15 -14 -16 -17 -20 -19 -18 -17 -18 -15 -14 -13 -12 -11 -11 -11 -12 -13 -12 -13 -13 -13 -13 -15 -17 -19 -19 -18 -20 -21 -21 -19 -18 -19 -18 -15 -14 -15 -15 -13 -13 -12 -12 -11 -10 -8 -5
-22 -23 -23 -24 -24 -23 -21 -20 -19 -21 -17 -17 -17 -16 -16 -16 -16 -17 -17 -18 -18 -16 -17 -14 -13 -13 -13 -13 -13 -13 -13 -14 -15 -14 -14 -14 -14 -14 -19 -19 -21 -22 -23 -24 -24 -22 -20 -22 -18 -19 -17 -17 -16 -15 -15 -15 -14 -14 -14 -13 -12 -12 -9
-23 -24 -24 -24 -24 -24 -23 -22 -22 -21 -21 -17 -17 -17 -17 -17 -18 -18 -18 -18 -18 -17 -16 -15 -15 -15 -15 -15 -15 -15 -17 -17 -16 -14 -14 -14 -15 -20 -20 -21 -23 -24 -24 -25 -23 -21 -21 -20 -20 -19 -18 -19 -18 -17 -17 -18 -17 -18 -17 -16 -16 -14 -14
-24 -25 -25 -25 -25 -25 -24 -24 -23 -22 -23 -22 -25 -24 -21 -20 -20 -18 -19 -18 -19 -17 -18 -17 -17 -17 -17 -17 -17 -16 -16 -16 -15 -15 -16 -21 -22 -22 -23 -22 -23 -24 -25 -22 -23 -20 -21 -18 -21 -20 -19 -19 -20 -21 -18 -18 -16 -20 -21 -18 -18 -18 -17
-25 -26 -26 -26 -26 -26 -25 -25 -24 -24 -23 -23 -24 -24 -23 -23 -21 -23 -23 -21 -21 -21 -19 -18 -17 -18 -19 -19 -19 -19 -20 -21 -21 -19 -18 -22 -24 -24 -22 -18 -18 -17 -20 -22 -20 -19 -19 -20 -22 -24 -22 -21 -23 -22 -22 -18 -19 -19 -21 -18 -18 -21 -20
-25 -24 -25 -25 -25 -26 -26 -25 -25 -25 -20 -19 -18 -19 -20 -21 -21 -22 -21 -19 -18 -19 -19 -19 -21 -22 -21 -22 -21 -21 -22 -24 -25 -24 -21 -26 -28 -27 -26 -25 -24 -26 -24 -23 -21 -23 -23 -23 -25 -25 -23 -23 -24 -23 -23 -22 -23 -21 -24 -20 -23 -25 -20
-21 -22 -23 -24 -23 -23 -24 -25 -24 -20 -18 -18 -18 -18 -18 -18 -18 -18 -19 -18 -18 -19 -21 -22 -24 -24 -24 -23 -23 -23 -25 -25 -27 -26 -27 -28 -20 -23 -26 -25 -24 -25 -25 -23 -23 -24 -24 -26 -24 -27 -26 -25 -25 -24 -25 -22 -19 -25 -22 -25 -25 -23 -22
-19 -18 -18 -19 -21 -21 -19 -19 -19 -19 -19 -18 -18 -18 -18 -18 -19 -19 -19 -19 -20 -21 -22 -24 -25 -25 -24 -24 -24 -23 -24 -26 -27 -27 -27 -28 -27 -28 -26 -23 -25 -23 -23 -22 -24 -24 -25 -25 -26 -26 -25 -26 -25 -25 -26 -28 -25 -25 -25 -26 -23 -26 -23
-19 -19 -19 -19 -19 -20 -21 -19 -19 -19 -19 -18 -18 -19 -19 -19 -19 -19 -19 -19 -19 -22 -24 -25 -26 -26 -25 -25 -25 -24 -24 -26 -28 -27 -29 -28 -29 -27 -26 -25 -24 -24 -29 -27 -27 -28 -26 -27 -27 -26 -26 -26 -25 -24 -27 -28 -27 -28 -27 -26 -26 -26 -21
-20 -20 -19 -19 -19 -18 -18 -19 -19 -19 -19 -19 -19 -19 -20 -20 -20 -20 -20 -20 -23 -25 -26 -26 -26 -26 -25 -25 -25 -26 -28 -28 -29 -28 -29 -29 -28 -28 -28 -28 -25 -25 -29 -26 -28 -27 -28 -26 -27 -26 -26 -24 -25 -26 -28 -28 -28 -28 -28 -27 -28 -24 -24
-22 -22 -22 -21 -20 -20 -20 -20 -20 -20 -20 -20 -20 -20 -20 -21 -22 -20 -20 -21 -24 -25 -26 -26 -26 -26 -26 -25 -25 -25 -27 -27 -27 -27 -27 -28 -28 -28 -30 -28 -29 -30 -28 -27 -26 -27 -25 -26 -28 -26 -29 -30 -30 -29 -29 -30 -28 -29 -29 -31 -30 -29 -26
-27 -24 -23 -24 -23 -23 -22 -22 -22 -22 -22 -22 -22 -21 -21 -21 -24 -26 -26 -26 -26 -26 -26 -26 -26 -26 -26 -26 -26 -26 -26 -26 -29 -27 -28 -28 -30 -30 -30 -30 -29 -29 -29 -28 -30 -30 -30 -29 -29 -31 -28 -28 -30 -31 -32 -31 -30 -31 -30 -29 -28 -27 -28
-28 -27 -24 -24 -23 -23 -23 -23 -23 -23 -22 -22 -22 -22 -21 -25 -27 -28 -28 -28 -28 -28 -26 -25 -25 -25 -25 -25 -26 -27 -27 -29 -28 -28 -28 -30 -31 -29 -28 -29 -30 -28 -30 -30 -31 -30 -29 -27 -31 -31 -30 -32 -32 -33 -31 -32 -31 -29 -28 -27 -28 -28 -28

ECMWFFLT1_sfc_dewp_246.txt.gz
Dewpoint
-3 -2 -2 -3 -3 -3 -3 -3 -3 -2 0 2 3 5 6 2 2 1 1 2 -0 2 4 3 2 2 3 3 2 3 4 5 6 6 5 6 7 7 7 8 8 6 8 12 16 18 19 20 16 15 14 15 17 16 16 18 17 19 20 23 20 19 22
-4 -3 -3 -4 -4 -4 -4 -4 -4 -4 -2 -1 1 2 5 3 1 0 0 0 -1 -0 1 2 2 1 2 3 1 1 3 4 4 5 3 3 5 5 5 8 7 7 7 7 11 14 17 18 16 13 13 12 14 15 15 15 16 18 19 21 19 17 17
-4 -4 -4 -5 -5 -5 -5 -6 -6 -5 -5 -4 -2 -1 1 4 1 -1 -0 -1 -1 -1 -0 0 1 1 2 2 1 0 2 3 3 4 3 2 4 4 5 6 7 7 5 7 8 12 14 15 15 14 12 11 12 15 13 13 14 16 17 18 19 17 15
-5 -6 -5 -6 -6 -6 -6 -7 -7 -7 -6 -6 -5 -4 -2 2 2 -1 -1 -1 -1 -2 -2 -1 -1 -0 1 1 0 -0 0 1 2 2 3 2 3 3 4 5 6 6 6 7 7 8 12 13 12 12 11 10 10 13 11 11 12 14 15 12 15 16 15
-6 -7 -6 -6 -6 -6 -7 -7 -7 -8 -7 -7 -7 -6 -4 -0 2 -1 -2 -1 -1 -1 -3 -3 -2 -1 -1 -0 -1 -1 -1 -1 -1 0 1 1 2 1 3 3 4 5 5 5 5 7 10 12 11 11 9 9 7 9 8 9 10 10 11 10 9 12 14
-9 -8 -7 -6 -7 -7 -7 -7 -8 -8 -9 -8 -8 -7 -4 -0 2 -1 -3 -2 -1 -2 -3 -3 -3 -3 -2 -2 -2 -1 -1 -1 -2 -1 -1 0 1 1 1 2 3 3 3 4 4 6 7 8 8 7 6 7 6 7 5 5 7 8 9 8 7 8 13
-11 -10 -7 -7 -8 -8 -7 -7 -8 -9 -9 -9 -9 -7 -3 1 1 -2 -3 -3 -2 -2 -2 -2 -3 -4 -4 -3 -2 -1 -1 -1 -2 -2 -1 -1 1 1 -0 0 1 1 1 1 2 4 5 4 5 5 3 3 5 5 4 2 3 3 5 5 5 4 10
-12 -10 -9 -9 -9 -9 -8 -8 -9 -9 -10 -9 -7 -4 0 3 1 -2 -4 -4 -4 -3 -3 -3 -3 -5 -5 -4 -2 -2 -2 -2 -3 -3 -3 -2 0 1 -0 -1 -0 -1 -1 -1 -0 0 1 1 1 0 2 1 2 0 1 2 1 1 1 2 3 3 6
-12 -12 -11 -10 -10 -10 -10 -10 -11 -10 -9 -8 -5 0 3 2 -2 -3 -5 -5 -5 -4 -3 -3 -3 -5 -5 -3 -2 -2 -2 -2 -3 -4 -4 -2 -1 -0 -0 -2 -2 -2 -2 -2 -2 -2 -1 -1 -2 -2 -2 -3 -2 -2 -2 0 0 -0 0 1 0 2 5
-14 -13 -12 -12 -12 -12 -12 -13 -12 -9 -7 -2 1 2 2 0 -3 -4 -6 -6 -7 -6 -5 -4 -4 -4 -5 -5 -4 -3 -3 -3 -4 -4 -3 -2 -1 -1 -0 -2 -3 -4 -3 -3 -4 -4 -3 -4 -5 -4 -4 -4 -2 -2 -1 -2 -1 -2 -2 -1 -1 -1 2
-15 -14 -14 -14 -13 -14 -14 -14 -13 -10 5 9 9 2 1 -1 -4 -5 -7 -8 -8 -8 -6 -6 -6 -6 -5 -5 -4 -4 -4 -4 -5 -5 -3 -2 -0 1 -1 -2 -3 -3 -2 -4 -3 -4 -4 -4 -5 -5 -4 -3 -2 -2 -1 -3 -2 -2 -2 -2 -4 -5 -1
-16 -16 -15 -15 -15 -15 -15 -16 -13 2 6 8 9 5 1 -3 -5 -8 -9 -10 -11 -10 -9 -8 -7 -6 -7 -7 -7 -7 -8 -6 -6 -5 -4 -3 -1 -1 -1 -2 -3 -3 -3 -2 -4 -5 -5 -5 -5 -5 -5 -3 -3 -2 -2 -2 -1 -2 -2 -3 -4 -4 -4
-17 -17 -16 -16 -16 -17 -16 -17 -13 -0 5 8 9 9 2 -5 -5 -10 -11 -13 -14 -13 -12 -11 -10 -9 -8 -8 -7 -6 -9 -10 -9 -6 -5 -4 -2 -2 -3 -2 -1 -0 -2 -1 -4 -4 -5 -4 -3 -6 -4 -1 -2 -1 -2 -2 -2 -2 -3 -3 -4 -4 -3
-18 -18 -18 -18 -18 -18 -18 -17 -14 -2 5 7 8 8 6 -6 -7 -11 -13 -16 -16 -15 -14 -13 -12 -11 -11 -9 -8 -8 -10 -11 -10 -9 -8 -6 -5 -6 -5 -3 -1 -1 -0 -0 -1 -1 -4 -2 -1 -3 -1 0 -0 -1 -1 -1 -4 -4 -5 -5 -5 -4 -4
-19 -19 -18 -19 -19 -19 -19 -18 -15 1 4 6 7 7 3 -7 -11 -15 -18 -18 -18 -17 -16 -15 -14 -13 -13 -11 -10 -10 -10 -10 -10 -9 -7 -6 -9 -8 -6 -4 -3 -3 -2 0 1 1 1 0 1 1 1 -0 -0 -0 -1 -2 -4 -5 -6 -6 -5 -6 -5
-19 -20 -20 -19 -20 -20 -20 -19 -16 0 3 4 5 6 -4 -8 -16 -18 -20 -21 -21 -20 -17 -16 -15 -14 -14 -13 -13 -12 -10 -8 -8 -7 -7 -9 -10 -10 -9 -8 -4 2 4 0 1 1 1 1 0 4 -0 -0 -1 -2 -4 -4 -4 -6 -7 -8 -9 -9 -7
-20 -19 -20 -20 -20 -20 -20 -20 -17 -9 1 3 5 2 -6 -11 -16 -20 -18 -22 -21 -19 -18 -18 -15 -15 -15 -16 -15 -13 -10 -9 -8 -7 -8 -12 -15 -15 -15 -11 -10 -6 2 4 5 5 6 6 6 6 5 5 4 -2 -3 -7 -9 -10 -9 -11 -11 -11 -10
-20 -20 -19 -20 -20 -20 -21 -20 -18 -16 -11 2 4 -2 -8 -11 -17 -22 -22 -22 -21 -21 -21 -18 -14 -15 -17 -17 -17 -13 -12 -5 -6 -9 -11 -14 -17 -18 -17 -14 -13 -13 -10 -7 -6 -7 -8 -8 -9 -9 -8 -1 -2 -6 -4 -12 -14 -10 -11 -12 -12 -14 -12
-20 -20 -20 -20 -21 -19 -19 -20 -19 -17 -15 -0 3 -3 -9 -12 -19 -20 -20 -21 -21 -22 -21 -20 -16 -16 -16 -16 -15 -13 1 -1 -8 -10 -12 -13 -17 -18 -20 -15 -16 -14 -12 -12 -13 -14 -14 -14 -13 -12 -11 -9 -10 -8 -5 -11 -13 -12 -13 -14 -14 -13 -13
-21 -22 -22 -21 -21 -21 -21 -21 -21 -19 -16 -4 1 2 -11 -12 -18 -18 -20 -22 -22 -22 -24 -23 -22 -17 -17 -16 -15 -13 -6 -0 -4 -6 -12 -13 -18 -18 -19 -15 -15 -12 -11 -13 -15 -16 -15 -15 -14 -14 -14 -16 -15 -11 -10 -10 -10 -12 -13 -14 -15 -13 -12
-23 -23 -23 -22 -21 -21 -22 -22 -21 -20 -17 -15 -11 -1 -10 -15 -18 -19 -20 -21 -22 -25 -23 -24 -23 -23 -18 -18 -16 -14 -11 2 3 -5 -11 -17 -19 -18 -12 -11 -15 -15 -13 -17 -16 -16 -16 -16 -15 -15 -17 -18 -18 -15 -14 -14 -13 -13 -14 -16 -16 -15 -14
-23 -23 -23 -23 -22 -23 -23 -21 -20 -21 -19 -18 -16 -2 -13 -18 -20 -18 -17 -21 -27 -21 -24 -23 -22 -24 -19 -18 -16 -14 -3 1 -1 -10 -13 -14 -11 -11 -12 -14 -15 -18 -18 -19 -19 -19 -18 -17 -17 -18 -18 -18 -19 -19 -15 -18 -18 -16 -16 -15 -17 -14 -14
-25 -25 -24 -24 -23 -23 -24 -24 -22 -20 -20 -20 -18 -16 -16 -16 -17 -15 -16 -20 -24 -26 -22 -22 -22 -20 -19 -17 -15 -12 -5 -6 -13 -14 -15 -12 -11 -14 -14 -14 -20 -18 -21 -22 -22 -21 -22 -21 -21 -20 -20 -19 -21 -18 -19 -18 -19 -19 -19 -17 -15 -13 -11
-25 -25 -25 -25 -25 -24 -24 -25 -25 -21 -21 -21 -20 -19 -12 -15 -17 -17 -18 -19 -24 -24 -24 -21 -21 -19 -16 -16 -15 -15 -15 -14 -15 -16 -15 -15 -16 -16 -15 -17 -20 -23 -23 -23 -25 -25 -25 -23 -24 -24 -23 -22 -21 -20 -19 -19 -21 -21 -22 -22 -20 -18 -15
-25 -26 -26 -25 -25 -25 -25 -25 -25 -27 -23 -22 -21 -19 -19 -18 -18 -18 -19 -20 -23 -20 -21 -17 -16 -17 -17 -17 -17 -17 -17 -17 -17 -17 -17 -17 -17 -17 -21 -22 -25 -24 -28 -28 -27 -24 -25 -26 -24 -23 -22 -20 -20 -20 -22 -22 -23 -23 -23 -23 -23 -20 -17
-26 -26 -26 -26 -26 -26 -25 -25 -25 -25 -26 -22 -22 -22 -20 -20 -20 -20 -20 -19 -20 -18 -19 -19 -19 -19 -19 -19 -19 -19 -20 -20 -19 -18 -17 -18 -18 -22 -22 -26 -27 -29 -28 -28 -26 -27 -24 -23 -24 -24 -23 -23 -22 -27 -26 -26 -24 -26 -22 -25 -23 -22 -22
-26 -26 -26 -26 -26 -26 -26 -25 -25 -25 -26 -27 -28 -27 -25 -24 -24 -21 -21 -20 -21 -20 -21 -21 -20 -20 -18 -18 -18 -18 -19 -19 -19 -20 -22 -23 -25 -24 -25 -25 -28 -28 -27 -27 -28 -25 -25 -23 -25 -26 -24 -26 -26 -27 -26 -25 -22 -26 -27 -25 -26 -30 -26
-27 -27 -26 -27 -26 -26 -25 -25 -25 -25 -25 -26 -27 -27 -26 -26 -25 -25 -27 -25 -24 -24 -23 -22 -19 -19 -20 -21 -22 -23 -25 -24 -24 -23 -23 -24 -27 -25 -26 -21 -19 -17 -25 -28 -28 -27 -28 -26 -28 -30 -29 -28 -28 -29 -29 -25 -24 -25 -27 -26 -28 -29 -27
-26 -25 -25 -25 -25 -25 -25 -25 -25 -24 -20 -20 -19 -19 -20 -20 -21 -22 -23 -20 -18 -18 -19 -20 -21 -23 -24 -28 -25 -25 -25 -26 -26 -26 -25 -27 -28 -28 -29 -31 -32 -32 -27 -28 -30 -29 -28 -27 -29 -29 -29 -29 -31 -30 -29 -29 -28 -27 -28 -28 -32 -30 -29
-22 -22 -22 -22 -22 -22 -23 -24 -23 -20 -18 -18 -18 -18 -18 -18 -18 -18 -18 -18 -19 -19 -21 -22 -24 -25 -26 -27 -28 -28 -28 -27 -28 -28 -27 -27 -24 -24 -28 -29 -29 -30 -29 -29 -29 -29 -29 -29 -29 -30 -30 -31 -30 -30 -31 -29 -22 -29 -29 -30 -33 -32 -31
-19 -19 -19 -20 -21 -21 -19 -19 -19 -19 -18 -18 -18 -18 -18 -18 -18 -18 -18 -18 -19 -21 -22 -24 -26 -26 -27 -27 -28 -28 -28 -28 -28 -28 -28 -28 -27 -28 -27 -25 -30 -29 -28 -28 -29 -28 -29 -29 -29 -29 -30 -30 -30 -29 -29 -32 -29 -28 -30 -32 -31 -32 -31
-20 -19 -19 -19 -20 -20 -22 -20 -20 -19 -19 -19 -18 -18 -18 -18 -18 -18 -18 -19 -19 -22 -24 -25 -26 -27 -28 -29 -29 -28 -28 -28 -29 -28 -29 -28 -30 -28 -27 -26 -26 -28 -31 -31 -31 -31 -30 -31 -31 -31 -30 -30 -30 -27 -27 -31 -31 -33 -33 -32 -32 -32 -30
-21 -21 -20 -20 -20 -19 -19 -20 -20 -20 -19 -19 -19 -19 -20 -19 -19 -19 -20 -20 -22 -24 -25 -26 -27 -28 -28 -29 -29 -29 -29 -29 -29 -29 -28 -29 -29 -29 -28 -27 -27 -26 -30 -30 -31 -31 -31 -31 -31 -30 -29 -28 -29 -30 -31 -31 -31 -33 -33 -33 -34 -32 -30
-23 -23 -22 -22 -21 -21 -21 -21 -21 -20 -20 -20 -20 -20 -20 -20 -21 -20 -20 -21 -23 -24 -25 -26 -27 -28 -28 -29 -29 -29 -29 -29 -28 -28 -28 -28 -28 -28 -28 -28 -29 -34 -30 -31 -31 -31 -30 -30 -31 -31 -32 -32 -33 -33 -34 -34 -32 -34 -34 -35 -36 -34 -32
-28 -26 -24 -25 -25 -24 -23 -23 -22 -22 -22 -22 -21 -21 -21 -20 -23 -24 -25 -25 -25 -25 -25 -26 -27 -28 -28 -28 -29 -29 -29 -29 -29 -29 -29 -29 -28 -29 -30 -31 -31 -29 -32 -30 -31 -32 -32 -31 -31 -32 -32 -32 -33 -33 -33 -32 -33 -35 -34 -35 -34 -35 -34
-29 -28 -26 -25 -25 -24 -23 -23 -23 -22 -22 -21 -21 -21 -21 -24 -26 -26 -26 -27 -27 -27 -27 -27 -28 -28 -29 -29 -29 -29 -29 -29 -29 -29 -29 -28 -29 -28 -29 -30 -31 -30 -31 -32 -31 -32 -32 -30 -33 -33 -33 -35 -35 -34 -31 -32 -33 -33 -34 -34 -34 -35 -34